Lapse_Rate
6.4 6.3 6.2 6.2 5.9 5.7 5.6 5.6 5.4 5.3 5.0 5.3 5.6 6.5 5.9 5.5 5.7 5.3 5.2 5.2 5.1 5.3 5.7 5.8 6.0 6.1 6.1 6.1 6.2 6.0 6.1 6.0 6.1 6.1 6.0 6.1 6.0 5.7 5.7 5.9 6.0 6.0 5.9 5.9
6.4 6.3 6.2 6.0 5.8 5.7 5.6 5.7 5.5 5.4 5.1 4.9 5.7 6.5 6.5 6.5 6.3 5.6 5.4 5.4 5.4 5.4 5.7 5.9 5.9 5.8 6.0 6.3 6.4 6.3 6.2 6.1 6.0 5.8 5.8 5.7 5.8 5.8 5.7 5.6 5.6 5.7 5.7 5.6
6.5 6.3 6.1 6.0 5.9 5.7 5.6 5.6 5.4 5.2 5.3 5.5 5.4 6.5 6.9 6.6 6.3 5.9 5.6 5.4 5.5 5.5 5.7 5.8 5.8 6.0 6.2 6.4 6.4 6.2 6.1 6.1 6.0 6.0 6.0 5.9 5.9 5.9 6.0 5.9 5.7 5.6 5.7 5.7
6.4 6.3 6.1 6.0 5.9 5.9 5.9 5.6 5.5 5.4 5.2 5.2 5.3 5.4 6.5 6.4 6.2 6.0 5.8 5.5 5.5 5.5 5.7 5.9 5.8 5.7 6.0 6.2 6.1 6.0 6.1 6.2 6.3 6.2 6.2 6.1 6.1 6.0 5.8 5.6 5.7 5.6 5.6 5.7
6.5 6.3 6.2 6.1 6.1 6.0 5.7 5.5 5.6 5.3 5.4 5.2 5.3 5.2 7.2 6.6 6.5 6.4 6.2 5.8 5.6 5.5 5.5 5.7 5.8 5.8 5.9 6.2 6.3 6.5 6.4 6.3 6.3 6.3 6.2 6.1 6.0 6.0 5.8 5.8 5.5 5.5 5.4 5.3
6.5 6.4 6.3 6.3 6.1 6.2 6.1 6.0 5.8 5.5 5.1 4.2 5.1 5.6 6.8 6.5 6.6 6.4 6.5 6.1 5.8 5.7 5.5 5.7 5.9 6.0 6.1 6.3 6.2 6.2 6.3 6.3 6.2 6.1 6.1 6.2 6.1 6.0 5.8 5.8 5.6 5.4 5.2 5.1
6.6 6.6 6.4 6.3 6.2 6.3 6.2 6.1 5.8 4.8 4.4 4.8 5.1 4.9 7.0 6.6 6.5 6.6 6.4 6.2 5.9 5.8 5.5 5.5 5.9 6.0 6.2 6.3 6.3 6.3 6.3 6.1 6.0 6.0 6.1 6.1 5.9 5.9 6.0 5.9 6.0 5.7 5.4 5.2
6.5 6.9 6.5 6.3 6.1 6.0 6.0 6.0 6.0 5.2 4.4 4.0 4.6 4.7 6.9 7.2 7.0 6.8 6.4 6.1 6.1 5.9 5.9 5.9 5.9 6.0 6.0 6.0 6.1 6.3 6.3 6.1 6.0 6.0 5.9 5.9 5.9 6.0 5.9 5.7 5.5 5.3 5.2 5.1
6.0 6.5 6.7 6.3 6.4 6.3 5.8 5.9 5.9 5.5 4.8 3.4 4.6 5.2 6.3 7.0 6.8 6.8 6.4 6.3 6.3 6.4 6.2 6.1 6.2 6.1 5.9 5.6 5.9 6.0 6.0 5.9 5.7 5.7 5.6 5.8 5.6 5.5 5.6 5.5 5.4 5.1 5.0 4.9
6.0 5.6 6.7 6.4 6.5 6.4 6.1 6.0 5.9 5.7 5.2 4.5 4.5 4.5 6.2 6.9 6.6 6.7 6.7 6.6 6.4 6.0 6.0 6.1 6.2 6.1 6.0 5.9 5.9 5.8 5.8 5.6 5.7 5.6 5.6 5.7 5.4 5.4 5.4 5.4 5.3 5.1 4.9 4.9
6.0 5.3 6.1 6.4 6.6 6.3 5.8 6.0 6.1 6.1 5.8 5.1 4.4 5.2 6.7 6.9 6.5 6.4 6.3 6.3 6.2 6.2 6.2 6.3 6.4 6.3 6.0 5.9 5.9 5.8 5.6 5.7 5.7 5.7 5.5 5.4 5.4 5.4 5.3 5.4 5.1 5.1 5.1 4.8
6.2 5.4 5.4 6.0 6.6 6.7 5.9 6.0 6.3 6.0 5.5 5.4 4.9 4.7 6.8 6.8 6.7 6.6 6.3 6.0 6.1 6.1 6.1 5.9 5.8 5.8 5.7 5.6 5.6 5.7 5.7 5.6 5.6 5.7 5.8 5.5 5.4 5.3 5.1 5.0 4.8 4.8 4.7 4.7
5.8 5.1 5.2 5.8 6.1 6.4 5.9 6.3 6.4 6.2 5.3 4.8 5.7 5.7 7.1 6.9 6.5 6.2 6.2 6.1 6.1 6.0 5.7 5.7 5.6 5.8 5.7 5.7 5.8 5.9 5.7 5.8 5.9 5.7 5.5 5.3 5.1 5.1 5.0 4.6 4.6 4.6 4.7 4.7
5.5 4.9 5.7 5.7 6.4 6.4 5.7 5.8 5.9 5.7 5.1 5.8 5.3 6.2 7.1 6.7 6.2 6.1 5.9 5.7 5.5 5.6 5.8 5.7 5.8 5.8 5.8 5.8 5.8 5.6 6.0 6.0 5.9 6.0 5.7 5.3 4.9 4.6 4.6 4.6 4.6 4.8 4.8 4.8
5.0 5.2 5.6 5.7 6.2 6.0 5.7 5.7 6.0 5.5 6.2 5.2 6.7 6.4 7.1 7.4 6.4 6.3 5.9 5.9 5.7 5.9 5.7 5.8 5.9 5.9 5.7 5.8 6.0 6.1 6.2 6.1 6.1 5.8 5.4 5.1 4.7 4.5 4.4 4.4 4.6 4.6 4.9 5.1
5.3 5.3 5.6 5.5 6.6 6.1 5.5 6.1 6.7 6.4 6.2 5.6 6.3 6.1 7.2 6.7 6.9 6.7 6.9 6.5 6.2 5.9 5.8 5.7 5.5 5.6 5.8 6.1 6.2 6.3 6.1 6.0 5.8 5.5 5.3 4.9 4.6 4.6 4.7 4.7 4.7 4.8 5.1 5.3
5.2 5.2 5.4 5.2 5.8 5.6 5.1 6.6 6.7 6.4 6.5 6.7 6.6 6.8 6.4 6.8 6.8 6.6 6.5 6.4 6.0 5.6 5.3 5.5 5.6 5.7 6.0 5.8 6.1 6.2 6.0 5.7 5.5 5.4 5.2 5.0 5.0 4.8 4.7 4.7 4.7 5.0 5.2 5.3
5.5 5.9 5.3 5.2 5.5 5.5 6.9 6.9 6.8 6.6 6.7 6.2 5.7 6.3 6.2 6.4 6.4 6.3 5.9 5.8 5.5 5.5 5.5 5.4 5.6 5.9 6.0 5.9 6.1 5.9 5.7 5.6 5.5 5.3 5.1 5.1 4.9 4.9 4.8 4.8 5.0 5.1 5.1 5.1
6.3 5.9 5.4 5.6 6.0 6.4 6.5 6.7 6.9 6.5 6.2 6.4 6.8 6.9 6.4 6.2 5.9 5.7 5.8 5.6 5.6 5.5 5.5 5.6 5.9 6.1 5.9 5.8 5.8 5.7 5.7 5.5 5.3 5.2 5.0 5.0 4.9 4.9 4.8 5.0 5.0 5.1 5.0 5.0
6.0 6.1 5.9 5.9 6.1 6.0 6.9 6.7 6.6 5.9 5.9 6.1 6.1 6.0 5.9 5.4 5.4 5.4 5.4 5.4 5.5 5.5 5.4 5.6 5.7 5.7 5.6 5.7 5.8 5.9 5.7 5.4 5.3 5.1 5.2 5.0 4.9 4.8 4.8 4.9 5.0 5.0 5.0 4.9
5.8 5.8 6.1 6.2 6.1 6.2 6.4 6.3 6.1 6.3 6.2 5.7 5.6 5.3 5.4 5.3 5.4 5.3 5.3 5.6 5.7 5.4 5.3 5.5 5.6 5.5 5.7 5.9 6.0 5.8 5.5 5.4 5.3 5.2 5.2 5.0 4.8 4.7 4.7 4.8 4.9 4.8 4.8 4.8
6.1 6.4 6.0 6.1 6.2 6.2 6.1 6.2 6.0 5.9 5.6 5.4 5.2 5.1 5.1 5.4 5.7 6.0 6.2 6.1 5.8 5.5 5.5 5.5 5.6 5.7 6.0 5.9 5.9 5.7 5.4 5.3 5.2 5.0 4.9 4.7 4.6 4.5 4.6 4.6 4.6 4.6 4.7 4.9
6.3 6.2 6.4 6.4 6.7 6.2 5.9 5.6 5.8 5.2 4.9 5.1 5.1 5.1 5.5 6.0 5.9 6.1 6.3 6.1 5.8 5.4 5.1 5.4 5.7 5.9 6.0 6.0 5.8 5.4 5.4 5.3 5.0 4.8 4.6 4.4 4.4 4.4 4.5 4.5 4.5 4.6 4.7 4.8
6.2 6.1 6.3 6.3 6.1 6.1 6.0 6.0 5.2 5.1 5.2 5.2 5.2 5.4 5.6 5.7 5.9 6.1 5.9 5.5 5.2 5.3 5.5 5.5 6.0 6.2 6.0 5.8 5.6 5.4 5.2 4.9 4.7 4.6 4.4 4.3 4.4 4.3 4.4 4.4 4.4 4.4 4.5 4.6
5.9 5.9 6.0 6.2 6.1 5.9 5.5 5.0 5.4 5.4 5.4 5.4 5.4 5.5 5.6 5.6 5.6 5.5 5.5 5.6 5.6 5.7 6.1 6.3 6.3 6.2 5.9 5.5 5.1 4.9 4.7 4.6 4.6 4.4 4.2 4.2 4.4 4.3 4.4 4.4 4.3 4.3 4.2 4.4
5.7 5.9 5.8 5.6 5.2 5.1 5.1 5.1 5.0 5.1 5.2 5.2 5.2 5.3 5.5 5.5 5.5 5.6 5.8 6.0 6.1 6.1 6.2 6.2 6.0 5.8 5.5 5.1 4.9 4.7 4.6 4.6 4.4 4.2 4.1 4.2 4.4 4.4 4.4 4.3 4.2 4.3 4.3 4.4
Wind_Speed
5 6 2 1 1 1 2 3 5 5 4 5 4 9 16 6 6 8 8 7 8 10 4 5 5 3 1 4 7 8 9 10 7 4 3 3 5 7 7 13 16 17 17 18
5 2 2 1 2 2 3 3 5 5 3 2 7 18 13 6 4 5 7 8 9 5 5 5 4 1 4 1 2 5 6 7 6 3 2 2 1 3 5 10 13 16 15 16
4 2 1 1 0 4 2 3 3 5 6 2 7 7 4 1 1 3 4 4 5 9 7 6 6 6 5 2 3 3 4 5 6 6 2 1 2 2 4 6 7 14 15 14
2 1 1 1 1 3 4 3 2 5 4 3 4 5 5 3 5 4 5 6 6 6 4 4 6 4 5 3 2 3 4 5 5 6 5 6 3 2 3 4 5 9 14 15
2 2 1 1 1 3 7 1 3 1 1 3 1 1 6 4 5 7 7 7 7 7 6 6 6 7 5 6 6 4 3 4 4 4 5 4 6 4 2 3 6 7 10 13
2 1 2 1 1 3 5 2 2 2 1 1 1 2 5 3 5 3 3 4 5 5 6 5 5 6 7 6 5 5 4 3 3 4 5 6 6 4 4 4 5 5 5 7
5 1 1 1 2 1 6 4 4 5 3 4 1 1 9 5 5 4 5 3 2 4 6 6 8 8 8 9 8 6 6 4 3 5 5 5 5 5 6 5 4 5 5 5
2 5 3 1 1 1 3 2 3 5 3 4 3 6 5 4 3 4 2 3 2 1 4 6 7 8 9 10 10 9 8 5 4 5 5 4 4 3 4 4 4 4 4 4
2 4 1 1 2 2 2 2 2 1 1 2 4 6 9 4 7 4 5 3 3 1 2 3 5 7 8 8 9 10 8 7 6 5 4 4 4 5 5 5 4 3 4 5
4 4 2 1 2 3 2 5 2 1 4 6 5 4 7 4 5 7 7 7 6 4 4 4 3 3 6 7 6 7 7 8 7 6 5 5 5 4 4 3 4 4 3 5
4 2 3 1 6 8 2 1 2 1 4 4 4 6 7 7 6 8 8 7 5 4 4 3 4 4 2 4 6 7 7 8 8 7 6 6 5 4 3 2 2 2 3 4
5 4 4 10 1 2 3 7 6 3 5 4 2 12 2 5 5 4 6 6 4 4 4 4 4 5 2 4 7 10 9 8 7 7 6 5 5 3 1 1 1 3 2 3
6 2 4 7 1 3 5 5 6 1 3 10 7 9 0 1 3 5 8 6 4 4 4 3 4 5 2 4 6 7 6 6 6 6 6 4 3 2 1 1 2 1 2 3
7 4 7 10 13 3 4 6 7 10 4 10 14 25 24 10 8 7 7 6 4 3 3 3 4 7 5 2 4 5 5 6 6 6 5 4 3 0 1 1 1 1 2 2
2 5 6 14 17 16 20 19 17 14 23 11 26 23 26 24 9 12 10 7 6 3 3 4 6 6 5 2 3 4 5 6 6 5 4 3 2 2 2 1 1 2 3 2
2 4 2 12 13 15 20 16 19 23 26 21 28 28 30 8 3 4 7 7 6 4 3 4 4 5 6 2 3 5 5 5 5 5 4 3 3 3 2 1 1 1 2 3
8 4 3 10 3 6 11 13 12 5 5 7 8 16 9 4 4 5 5 4 4 3 2 2 3 4 4 2 3 5 5 4 4 4 4 4 3 2 1 2 2 3 3 4
8 5 3 5 1 7 3 1 6 11 8 9 14 12 3 2 4 5 5 3 3 3 3 2 2 3 3 2 3 3 3 3 3 4 4 4 3 2 2 3 4 4 5 5
14 10 4 4 6 8 12 4 3 3 5 7 8 4 2 2 1 3 5 5 3 2 2 2 2 2 3 3 1 2 1 2 3 4 3 3 2 3 3 5 6 6 5 4
2 7 4 3 4 5 0 2 2 3 7 8 10 6 5 4 2 2 2 2 3 2 2 2 3 2 3 3 2 2 2 3 3 2 2 2 3 4 5 6 7 5 4 5
3 2 8 8 6 6 6 6 3 4 4 9 10 8 8 3 2 3 2 3 2 3 3 3 3 2 1 3 2 1 0 1 1 2 2 4 5 5 6 7 4 4 4 4
2 3 4 2 4 5 16 4 3 8 6 10 9 9 7 6 6 5 4 4 4 4 3 2 1 1 2 2 2 2 3 2 3 4 5 5 4 4 6 4 4 4 3 4
4 3 2 2 2 8 9 10 6 9 4 8 9 10 10 9 9 8 6 4 4 3 2 2 2 3 3 3 3 5 4 3 4 4 5 5 5 6 6 5 5 4 3 3
3 9 2 2 8 7 11 8 10 7 9 9 8 8 9 9 8 6 5 4 3 3 3 2 3 4 5 4 5 4 6 5 4 6 6 5 5 6 5 4 4 4 4 4
3 8 8 1 8 2 12 12 10 9 9 9 9 9 10 10 9 9 7 7 6 5 4 4 4 5 5 4 6 5 7 5 6 6 6 6 5 5 5 5 5 5 6 6
6 5 3 2 6 4 4 7 11 10 10 8 9 10 9 8 8 8 7 6 6 5 6 6 6 7 7 6 7 7 6 6 6 7 6 5 5 5 5 5 5 11 15 16
Wind_Direction
7 61 44 264 178 137 209 227 250 258 275 309 246 266 277 246 217 239 238 225 225 233 241 194 185 163 31 28 12 14 16 12 19 8 6 32 41 35 35 33 29 26 21 18
23 70 221 193 163 240 238 269 279 278 274 254 304 288 276 250 229 207 220 221 223 216 214 205 197 135 55 46 11 19 21 21 25 17 351 21 38 55 45 31 32 30 31 28
135 163 115 172 215 4 283 220 278 263 320 255 308 289 326 91 272 222 228 232 217 216 217 207 191 195 189 186 59 38 19 13 18 13 25 74 74 49 18 23 27 22 25 28
194 142 95 125 281 111 309 195 275 289 358 297 18 288 302 300 274 243 238 217 224 214 211 200 191 185 199 187 80 44 25 27 31 26 59 70 74 79 29 26 27 30 29 30
275 178 133 225 203 158 244 342 253 219 202 358 348 2 271 0 276 249 237 228 224 214 197 201 193 195 174 166 185 170 113 75 56 55 71 86 86 89 98 72 55 37 34 34
264 307 180 208 217 191 305 351 71 59 99 338 188 132 272 219 226 256 205 212 234 209 191 196 193 168 179 174 175 169 156 116 95 90 82 93 102 95 79 52 57 39 27 29
338 242 256 178 12 46 17 18 335 348 3 242 235 243 253 248 226 224 199 165 61 191 183 186 190 193 188 190 188 184 175 160 130 100 97 99 98 83 75 57 56 47 32 22
45 323 175 165 103 191 50 120 145 291 292 285 314 233 248 215 223 218 169 143 100 116 188 199 207 208 201 203 191 186 176 160 155 148 136 119 106 105 95 76 60 48 34 21
143 277 121 73 152 128 156 179 146 207 241 334 242 283 286 221 249 244 237 201 150 210 182 205 222 216 213 207 203 184 170 164 168 156 133 120 119 105 97 86 76 56 29 16
190 295 183 149 107 31 170 156 84 35 299 288 265 272 245 271 249 220 216 203 183 155 84 51 13 275 230 211 196 181 171 172 163 156 154 152 138 124 113 89 64 57 36 31
143 136 280 209 199 180 132 226 77 142 182 225 284 263 213 225 225 201 211 188 167 125 77 36 359 344 314 178 171 175 176 167 168 169 164 155 145 124 111 90 69 70 67 39
199 156 243 233 154 139 178 198 166 171 226 239 240 271 316 236 265 237 200 166 140 116 81 40 11 352 346 182 175 185 185 173 167 162 158 155 137 124 122 78 61 91 45 18
186 204 319 321 50 23 212 207 217 266 44 234 259 266 72 298 251 217 179 186 158 124 87 39 25 16 337 240 203 189 173 158 153 148 137 130 128 140 33 19 119 40 19 34
155 193 198 251 261 141 199 210 216 211 218 262 239 270 277 248 231 216 207 179 165 121 84 47 24 20 355 288 202 162 152 150 145 137 142 152 156 179 141 81 47 8 346 28
169 246 241 251 269 278 274 267 252 222 243 242 267 271 273 280 245 225 191 159 166 142 71 31 22 358 353 21 127 132 141 146 150 153 159 166 152 179 226 249 299 338 344 351
161 254 273 278 242 242 267 266 256 246 252 256 254 263 270 323 93 149 162 150 164 154 93 42 20 11 8 25 141 146 143 144 144 152 167 176 181 184 197 213 254 293 325 318
160 218 204 268 135 323 274 250 232 239 222 219 240 253 298 216 196 155 147 138 142 103 63 37 27 26 28 49 142 147 144 140 149 161 166 170 169 180 218 259 263 277 287 285
184 207 209 283 59 265 265 246 201 211 248 216 263 277 19 38 80 82 52 120 142 144 103 98 71 63 40 41 85 123 140 151 171 175 170 164 174 205 252 271 269 271 274 275
216 228 228 229 220 284 306 26 51 36 314 15 329 358 65 60 125 67 44 36 48 69 109 101 94 85 74 56 31 126 141 184 184 174 167 172 208 251 265 268 269 272 277 284
92 220 206 192 245 246 215 100 71 112 264 2 356 350 347 332 268 50 80 86 91 79 74 98 74 57 64 7 349 187 188 170 162 172 185 232 254 264 265 272 277 268 267 275
167 178 223 242 257 267 14 354 319 254 349 4 18 7 10 29 43 339 48 46 57 59 34 34 55 88 24 346 22 59 219 224 230 267 270 270 270 272 270 270 251 260 260 269
220 212 215 235 233 257 358 308 347 338 340 18 16 8 359 354 9 22 33 34 24 40 32 40 75 281 320 356 20 293 289 292 262 272 277 283 288 284 283 267 263 252 245 255
248 236 285 234 48 46 42 56 19 2 7 16 3 1 356 360 7 15 18 20 18 19 360 358 320 316 308 300 287 288 290 308 284 277 277 283 285 280 279 266 263 252 233 243
75 12 339 258 37 75 55 40 17 11 21 12 9 3 3 360 6 2 5 6 359 332 324 324 335 320 306 306 297 287 294 301 286 276 277 277 270 272 259 261 264 258 241 246
354 345 345 18 24 320 48 33 356 7 16 15 8 8 6 360 2 355 355 355 343 329 326 320 311 304 295 309 292 290 293 291 274 269 268 267 269 259 267 259 250 250 248 233
1 9 2 331 8 293 309 11 8 8 5 4 1 358 4 8 348 343 338 331 319 322 334 319 306 304 299 292 284 280 272 269 259 265 267 258 259 249 255 256 268 277 264 257